Theta_e
321 316 316 317 308 308 301 303 308 307 308 313 317 317 319 321 318 309 336 338 337 340 342 343 345 347 348 348 347 346 345 342 341 340 343 344 347 345 344 343 344 341 339 338 336 334 336 335 333
317 315 317 313 301 299 300 304 302 306 307 310 314 317 319 314 315 330 331 339 337 341 341 342 343 345 347 347 347 345 345 343 341 341 345 346 346 344 343 341 341 340 339 337 336 333 335 335 334
317 314 310 305 301 298 300 301 303 305 308 307 311 323 312 299 309 324 335 339 336 341 341 341 342 345 346 346 346 345 344 344 342 343 345 344 345 344 342 340 339 339 338 336 334 333 335 335 335
312 312 310 297 296 297 296 300 302 302 307 305 312 313 305 306 310 326 336 338 336 338 341 340 343 344 345 345 346 344 344 343 342 345 346 345 344 342 342 340 338 337 336 335 333 332 333 332 331
313 310 298 296 298 297 297 300 300 298 302 301 309 306 304 305 306 321 334 337 336 336 341 340 342 343 344 344 345 344 343 343 344 345 344 343 343 341 340 339 337 335 334 332 332 332 331 330 329
305 303 293 294 294 295 296 298 297 295 299 298 299 303 306 305 304 307 333 334 337 337 341 340 337 339 341 342 344 343 344 344 344 343 343 342 342 340 339 338 337 335 331 330 332 332 329 327 326
302 298 293 293 295 293 293 297 293 293 295 296 299 297 300 301 304 306 328 335 335 338 339 340 339 337 334 337 339 341 342 343 342 341 341 339 339 339 338 337 336 335 331 329 331 329 327 326 326
305 299 293 292 292 291 293 295 296 294 294 300 299 292 292 300 304 305 316 332 334 335 338 337 338 337 335 335 333 335 337 338 339 339 335 333 333 333 333 332 334 335 332 330 331 328 326 327 326
307 295 290 290 292 289 294 293 297 298 295 297 299 298 300 304 305 303 305 314 329 333 336 336 336 336 334 331 333 330 331 333 333 333 329 327 332 331 328 328 332 334 333 332 330 328 328 328 327
299 293 291 293 292 291 294 293 294 293 294 294 296 300 304 304 303 301 301 302 305 324 332 335 334 334 333 332 328 335 336 334 334 335 332 332 331 330 329 325 328 330 329 330 329 328 329 326 320
296 291 292 293 294 295 294 293 296 293 292 294 294 298 302 303 302 302 302 302 303 307 330 333 335 334 332 332 327 333 333 333 333 334 333 332 328 327 326 324 324 323 321 323 326 325 324 320 319
289 294 294 295 296 295 293 294 293 294 293 298 298 300 302 302 302 302 302 303 303 304 318 331 333 333 333 334 330 331 333 333 332 333 333 330 325 323 322 322 323 322 321 320 320 321 322 319 319
291 292 294 296 295 294 296 293 292 293 296 299 300 302 301 302 302 304 305 305 305 304 306 322 332 332 332 333 333 330 332 331 332 332 332 331 324 322 321 321 321 321 322 322 320 320 320 319 318
293 294 294 295 294 295 293 292 294 294 297 297 299 299 300 301 302 303 304 305 306 307 306 307 325 331 331 331 331 330 331 331 330 332 332 330 326 324 322 321 320 320 321 321 320 320 320 319 317
294 290 292 293 293 293 295 291 291 294 297 296 296 297 299 301 302 302 304 305 306 308 309 308 308 329 330 330 330 330 327 331 330 328 330 329 328 328 323 322 320 320 320 320 319 320 319 316 317
290 290 285 291 293 294 292 286 293 295 294 293 294 295 297 299 301 302 304 305 307 308 308 310 311 311 330 330 330 331 328 327 328 327 329 330 329 328 324 322 321 321 320 320 320 319 318 316 316
288 282 285 288 293 293 291 287 293 295 294 292 293 295 296 298 299 301 302 303 305 307 308 309 311 310 315 330 330 330 328 328 327 328 329 329 329 329 325 323 322 321 320 319 319 319 317 315 316
282 282 285 284 289 292 289 287 291 293 293 292 292 294 295 297 298 300 301 302 304 305 306 307 310 311 310 327 329 328 328 328 328 326 329 330 329 329 326 324 322 321 319 318 318 318 318 316 316
289 286 284 287 291 288 288 288 289 292 292 291 292 293 295 296 299 300 300 300 300 302 303 304 306 309 309 315 326 326 325 327 327 328 329 330 330 330 328 324 322 320 319 319 319 318 317 316 317
289 285 284 288 290 288 289 287 291 291 291 292 292 293 294 296 297 298 299 299 299 299 301 301 304 307 310 307 327 327 327 328 328 328 329 329 328 328 327 325 323 321 320 320 319 318 316 317 317
287 285 284 285 289 289 287 284 288 291 292 293 293 294 295 295 294 296 297 298 299 299 299 301 303 305 308 309 325 327 327 326 325 326 327 328 328 328 327 325 325 324 323 321 319 319 318 315 318
285 289 288 288 285 279 286 275 285 288 288 290 291 292 292 295 295 296 296 296 297 298 301 303 304 305 309 312 323 324 323 322 324 325 327 327 328 328 328 327 325 324 324 323 322 322 321 318 316
286 290 288 287 284 281 283 276 281 287 284 287 290 291 291 294 295 295 295 296 297 298 302 311 305 307 310 313 324 325 323 324 325 325 325 326 321 321 322 324 326 325 325 324 324 323 323 322 319
291 289 287 286 284 275 282 277 277 280 283 287 289 290 291 293 294 295 295 296 296 297 299 311 307 310 314 316 325 325 323 322 320 317 316 315 315 315 315 315 315 316 318 321 323 321 319 320 317
289 284 276 274 273 276 283 277 280 286 288 288 288 289 290 292 293 293 293 294 295 294 295 303 309 310 315 317 318 316 314 314 314 314 313 312 312 312 311 312 311 310 312 313 313 311 310 309 308
285 283 275 268 272 275 281 276 281 288 290 290 291 290 290 291 293 292 292 292 294 294 293 296 301 305 308 310 310 310 310 309 308 307 307 308 308 309 310 310 310 309 310 311 311 310 309 308 307
285 281 286 279 272 274 278 281 287 289 287 289 289 289 288 289 291 291 291 292 294 293 293 293 294 297 300 303 306 307 307 306 304 304 304 304 306 307 306 305 304 306 306 307 306 305 304 305 305
287 288 279 278 267 268 275 276 277 282 284 286 287 287 288 289 289 291 291 291 293 293 293 292 293 293 295 296 296 298 299 301 301 300 298 299 300 301 301 301 301 301 301 301 301 300 300 299 299
282 281 284 283 279 275 272 274 283 283 285 284 286 288 287 287 288 289 290 291 292 293 292 293 292 292 293 294 294 294 294 295 296 296 296 296 297 297 297 297 297 296 296 297 296 296 296 295 295
286 284 285 276 276 278 277 274 287 285 286 287 287 288 287 287 287 288 289 290 291 291 291 292 292 292 292 293 293 293 293 293 293 293 294 295 294 294 294 295 294 294 294 294 293 292 293 292 292
Wind_Speed
18 12 6 2 1 2 11 8 16 14 9 8 10 7 19 16 11 3 5 7 9 15 13 11 10 9 9 10 11 9 9 8 8 7 6 4 18 15 16 12 11 11 12 12 12 11 11 9 10
9 11 3 4 2 3 2 7 13 6 9 8 10 10 12 9 18 5 7 14 6 14 13 11 9 9 8 9 10 8 7 8 8 8 9 13 17 15 14 12 10 10 11 11 11 10 9 9 9
11 10 3 3 3 3 3 12 11 12 14 13 7 9 6 11 15 9 13 17 8 13 11 11 10 9 8 7 9 8 7 7 8 8 10 11 14 14 13 12 10 8 10 10 9 10 9 8 7
5 3 5 3 17 14 8 8 11 11 5 14 10 10 7 17 10 12 12 17 12 10 11 14 12 10 9 8 8 8 7 6 7 7 9 11 13 12 12 12 10 8 8 9 8 8 7 7 6
4 5 4 2 18 12 11 10 10 12 7 14 13 6 6 10 14 13 8 12 14 4 9 12 12 11 9 8 8 8 7 6 6 6 8 11 13 12 11 11 10 8 7 7 7 7 6 6 5
4 2 3 6 18 16 10 9 12 13 12 13 10 6 5 4 19 15 7 9 12 6 8 9 12 11 9 8 8 8 8 7 5 5 10 11 11 12 11 11 8 7 7 6 6 6 5 4 3
4 3 9 9 13 10 10 8 9 9 10 14 13 6 5 19 15 15 6 5 7 10 2 8 8 8 7 7 6 9 9 8 7 6 10 9 9 9 10 9 7 8 7 6 6 5 4 3 2
4 1 8 9 8 5 7 8 9 7 7 9 12 8 8 12 12 11 6 5 4 7 7 5 7 8 6 6 7 7 9 8 7 9 9 9 8 8 8 8 7 7 7 7 6 4 3 3 2
1 5 6 3 6 4 7 7 9 4 7 10 8 7 9 12 10 8 6 5 3 3 6 4 5 6 7 7 7 7 7 9 9 9 10 8 5 6 7 6 10 8 7 7 6 6 5 5 7
4 5 4 4 6 5 6 9 7 6 13 7 11 8 9 10 8 8 9 8 8 6 6 6 2 4 5 6 7 8 7 5 5 6 9 7 6 6 7 7 9 8 8 7 7 7 6 7 5
7 5 9 5 4 4 5 6 10 10 10 9 14 16 13 8 10 9 8 8 7 8 4 5 5 4 6 3 4 4 3 4 4 8 7 7 4 6 5 4 3 3 5 3 5 5 4 6 5
6 6 7 5 2 4 3 3 6 8 5 7 8 9 9 12 10 9 9 8 8 8 5 5 6 5 6 4 3 5 4 5 4 7 8 5 3 5 5 4 6 5 4 6 5 4 6 5 4
11 6 7 3 5 5 8 5 1 8 7 8 8 9 10 11 12 9 8 8 8 8 8 7 6 6 6 6 4 4 4 4 5 5 8 5 4 4 4 4 5 5 5 5 4 4 3 4 6
7 8 6 6 4 4 4 2 6 7 7 8 9 9 9 11 13 12 12 9 9 9 8 9 7 8 6 6 7 4 4 5 4 5 6 7 5 5 5 4 4 4 4 5 5 4 4 4 4
9 6 6 7 1 2 6 6 6 6 7 8 9 8 10 13 15 16 17 17 13 10 11 8 10 9 10 9 7 6 4 4 4 4 7 7 5 6 6 5 4 5 4 5 3 4 2 2 3
4 5 4 4 5 4 1 5 6 7 8 10 10 9 9 10 15 15 17 19 18 12 13 14 10 11 11 11 10 7 6 6 5 4 5 7 8 7 6 5 5 5 4 4 3 4 4 4 5
5 1 4 4 3 3 5 4 5 7 8 9 9 11 13 13 15 16 16 17 19 13 15 15 16 12 11 13 9 11 9 9 8 7 5 8 8 6 4 5 5 6 4 4 4 4 4 3 4
3 2 1 1 4 6 4 4 3 5 9 10 10 13 16 18 23 22 20 18 18 17 15 16 14 16 13 11 10 8 9 8 7 9 5 7 7 7 6 5 5 5 4 4 4 5 4 4 4
6 6 4 4 3 4 6 5 3 5 9 12 14 15 16 18 18 19 20 20 18 17 19 18 16 16 12 7 9 9 10 9 5 7 7 8 9 10 9 5 5 5 5 6 6 4 6 4 3
6 4 4 1 2 3 8 8 6 3 9 10 14 15 20 22 22 23 24 22 20 19 19 18 17 16 15 6 9 8 8 8 8 6 6 8 7 7 7 7 6 6 4 6 6 6 3 4 5
6 5 5 4 6 8 7 7 7 5 11 10 13 12 15 21 25 27 28 25 23 22 21 18 17 16 15 11 7 6 7 3 5 6 6 7 6 7 7 7 7 7 6 6 6 6 7 5 5
1 4 4 6 5 1 1 5 5 7 10 12 14 13 15 19 20 22 25 25 25 24 22 19 16 17 13 15 10 12 8 8 5 7 5 6 9 9 10 8 7 6 4 7 7 6 7 5 6
3 3 3 4 5 4 6 2 1 7 9 12 12 14 14 19 21 23 25 24 23 24 22 14 12 15 12 13 11 10 9 6 4 4 6 9 5 8 8 5 3 5 5 5 5 5 5 5 6
1 5 5 3 3 1 5 5 4 4 3 9 10 13 14 17 19 20 23 24 24 25 25 21 9 11 11 8 11 12 9 7 5 7 6 5 8 8 11 12 10 9 6 4 3 5 3 0 3
4 4 2 4 2 4 6 1 2 5 7 9 12 13 14 15 19 22 24 26 23 27 26 22 19 16 13 11 11 14 15 15 14 11 11 10 9 11 13 12 13 10 10 12 12 12 13 10 8
2 2 2 4 2 3 4 3 4 6 8 8 10 11 14 18 17 21 21 21 24 25 26 25 22 20 16 11 14 17 16 12 12 15 12 11 12 10 13 11 14 15 14 12 11 10 10 12 12
3 2 3 1 1 1 4 4 2 7 8 11 13 14 16 16 17 19 20 19 20 21 26 25 25 23 20 18 16 19 17 18 14 16 17 10 11 11 12 14 14 12 13 13 12 10 11 11 11
2 2 1 1 1 4 1 2 2 7 11 11 13 13 13 14 15 17 18 20 19 20 21 24 25 21 22 18 21 17 18 18 17 16 16 14 12 13 14 13 13 12 12 11 11 9 9 10 7
3 2 2 2 1 2 3 3 4 6 6 7 7 8 9 11 12 14 15 17 18 19 22 24 27 24 19 20 23 23 20 19 17 16 14 13 13 13 13 13 12 11 11 10 10 12 12 12 10
3 2 6 3 4 3 1 5 5 4 5 6 7 7 8 8 10 11 14 15 16 19 19 20 18 21 21 20 23 22 20 20 18 15 15 14 13 14 13 12 12 11 10 10 11 12 12 12 12
Wind_Direction
312 309 288 299 255 4 3 30 43 26 7 356 317 324 93 46 5 52 35 349 309 125 130 141 143 143 142 146 141 141 141 146 142 139 128 114 137 123 114 110 108 110 108 105 102 93 81 91 95
302 297 231 262 226 56 42 339 24 36 53 340 354 327 43 59 27 49 12 324 302 130 140 140 146 146 143 152 142 142 159 155 150 148 133 128 126 124 121 115 112 114 114 110 99 93 88 101 110
267 263 280 208 51 66 148 4 353 15 31 4 350 50 62 347 17 352 353 322 294 134 148 133 142 147 148 144 151 157 172 169 165 163 153 144 133 132 129 119 116 119 121 117 112 101 94 88 96
304 203 256 268 99 58 49 8 11 358 54 14 333 69 79 27 5 352 355 335 319 129 121 136 144 154 158 161 167 171 174 176 177 179 162 148 128 123 121 119 118 117 121 122 119 111 99 96 92
220 256 243 131 88 92 47 8 7 5 30 11 8 76 88 23 4 1 8 344 345 34 129 145 150 156 167 172 179 181 177 181 180 163 157 146 130 130 124 122 124 124 122 123 133 122 108 99 91
275 243 348 90 76 46 33 356 10 8 23 18 4 354 124 5 12 347 21 344 339 344 139 155 151 160 168 183 191 192 186 176 163 137 154 145 138 131 127 128 147 132 130 146 127 123 120 111 93
309 20 45 61 107 59 22 346 25 0 27 35 335 54 321 7 358 335 14 346 335 330 167 152 160 165 165 190 206 206 203 175 159 148 150 132 127 127 125 127 126 126 154 159 146 147 149 145 143
305 49 77 18 63 71 20 353 26 20 37 42 14 20 333 340 340 327 345 359 357 324 326 214 179 162 172 182 209 196 194 178 165 151 143 139 140 131 134 129 134 148 155 176 160 170 183 196 222
262 57 75 49 29 39 22 4 356 284 45 50 20 1 337 328 332 337 336 359 2 329 331 308 255 186 183 180 189 209 203 182 173 160 147 147 157 166 159 176 150 142 142 157 180 193 207 231 245
30 85 112 53 33 20 13 33 346 356 28 6 349 348 339 334 341 354 347 341 348 338 308 296 245 241 214 207 179 194 189 184 172 165 170 178 197 177 167 140 148 156 163 174 191 207 218 240 245
359 110 129 83 52 13 4 31 45 14 20 1 335 340 343 352 352 346 346 340 322 314 282 274 269 239 251 257 203 180 172 177 182 172 186 198 179 141 133 135 152 162 191 196 199 211 223 228 232
90 68 92 110 20 14 58 270 77 57 12 324 321 327 340 350 348 343 334 320 315 313 286 273 251 274 223 226 224 194 174 187 198 178 187 203 190 146 151 158 172 191 181 218 198 205 218 226 242
90 94 91 116 167 11 102 68 13 32 4 334 349 357 2 350 347 339 325 325 328 320 320 283 257 234 251 195 235 250 186 208 201 180 195 185 178 165 176 188 176 181 179 196 223 208 231 223 240
121 115 119 75 132 20 104 159 60 17 347 357 3 4 9 357 352 343 339 334 334 323 314 308 268 236 239 220 195 235 206 200 215 206 184 179 179 177 180 182 191 200 197 190 196 213 212 223 223
123 111 114 32 60 62 313 84 56 10 351 4 5 12 10 5 2 355 349 337 330 326 316 297 296 246 218 224 222 218 202 195 230 229 170 179 210 179 176 176 190 199 215 218 216 216 211 257 255
241 189 176 54 351 167 257 112 57 16 8 7 3 3 7 9 3 356 347 335 325 325 321 313 293 293 229 214 208 217 211 198 211 243 172 190 212 191 183 173 193 201 197 188 194 223 222 214 228
201 226 80 146 30 293 228 80 68 27 21 3 0 6 2 355 4 350 346 333 325 331 324 311 303 278 268 217 216 205 220 187 212 221 196 187 195 206 187 186 194 196 199 200 194 222 192 228 241
160 133 15 346 38 316 265 164 106 35 33 4 359 8 1 2 357 345 339 332 319 318 308 302 297 287 268 230 206 209 204 214 195 213 192 180 187 190 194 191 193 190 184 208 218 211 224 195 220
15 34 358 78 61 327 253 274 191 49 34 2 9 5 9 3 346 341 336 330 320 314 313 301 289 289 279 246 203 202 204 203 206 208 190 187 195 201 194 187 200 195 190 197 205 209 210 242 226
3 320 44 318 90 289 298 276 281 59 45 12 10 5 11 349 347 344 339 335 322 312 302 296 284 280 279 251 210 202 199 208 196 194 192 196 194 192 195 188 193 204 195 210 208 210 214 211 212
60 13 11 316 318 249 282 267 188 112 43 5 16 17 11 351 343 340 340 335 326 317 305 289 278 271 275 252 217 190 196 179 191 201 207 200 201 208 199 197 198 204 199 209 205 198 206 209 214
224 40 325 295 339 356 335 291 96 44 17 9 8 14 0 352 341 342 336 337 333 324 308 281 263 256 252 268 213 195 197 199 192 198 193 205 212 219 218 208 202 203 208 216 214 208 215 187 219
71 340 308 298 296 18 192 96 38 57 360 4 358 8 358 356 343 348 344 341 336 334 323 299 247 247 245 248 203 188 191 184 147 162 200 215 104 75 63 45 335 231 214 226 208 225 223 216 212
344 248 219 267 255 320 121 99 310 20 339 3 11 6 356 353 346 354 348 354 350 347 349 349 236 244 242 222 182 186 178 164 104 81 81 49 52 66 71 71 55 31 26 13 2 20 37 156 52
220 252 306 352 352 234 130 154 135 57 36 20 21 2 357 357 356 358 355 355 355 359 358 1 17 27 42 66 94 96 85 78 85 88 83 64 59 52 57 63 73 61 47 60 69 71 65 58 68
73 358 159 225 295 318 139 227 145 75 55 31 31 4 8 6 6 2 0 355 357 8 7 10 12 25 30 61 83 86 84 80 67 79 80 64 63 54 46 46 51 51 48 56 62 66 58 70 60
142 185 18 62 359 328 233 110 106 44 32 29 24 7 12 7 7 5 4 2 1 13 15 15 20 22 35 27 37 73 76 76 73 62 65 68 70 86 56 53 44 56 48 46 57 54 53 48 56
317 58 102 0 305 281 220 228 188 14 11 17 19 6 10 6 12 8 8 8 12 18 25 20 29 23 45 44 42 48 51 61 65 64 59 58 56 56 62 51 44 42 53 43 53 54 45 55 44
165 180 214 20 248 260 296 250 64 44 24 26 30 7 15 10 13 17 13 14 19 23 28 31 27 22 37 43 46 42 42 48 55 57 54 54 49 48 61 64 57 47 47 48 59 58 45 45 40
332 302 182 144 205 252 4 272 108 83 63 55 44 13 26 22 15 24 21 20 23 27 31 37 32 25 33 40 48 45 43 41 45 42 49 55 57 51 47 44 60 53 51 54 55 62 60 53 43